Погода в Булгунняхтахе

Россия / Республика Саха (Якутия)     61°18′00″N   128°39′34″E
темп.,
°C
ветер,
м/с
пор.,
м/с
влажн.,
%
обл.,
%
осадки,
мм/ч
давл.,
гПа
погр.,
м
8 августа, пн
пн800:00+10в22955 0.0 100820
03:00+9в2296100 0.0 100829
06:00+10всв2889100 0.0 1008268
09:00+16св476297 0.0 1006750
12:00+20св465079 0.0 10041570
15:00+18св3662100 0.0 1003944
18:00+19ссв4860100 0.0 1002687
21:00+15св2578100 0.0 1002130
9 августа, вт
вт900:00+15св3975100 0.0 1001341
03:00+14св3979100 0.0 1001357
06:00+14св3980100 0.0 1002471
09:00+15св4875100 0.0 1002622
12:00+15всв4882100 0.1 1003713
15:00+14всв3784100 0.1 1004616
18:00+13св3680100 0.0 1005430
21:00+12с1387100 0.0 100578
10 августа, ср
ср1000:00+12с0085100 0.1 100513
03:00+11зюз1196100 0.9 100518
06:00+12з1295100 0.0 100486
09:00+13сз1195100 0.3 100488
12:00+15сз1390100 0.1 1004281
15:00+14сз1496100 0.4 1003297
18:00+13сз1299100 1.3 100498
21:00+13с1199100 2.9 100323
11 августа, чт
чт1100:00+13в1199100 0.3 100334
03:00+12вюв0198100 0.3 100312
06:00+12юв0197100 0.0 100314
09:00+14ююз009099 0.0 1003210
12:00+15з1187100 0.0 1003230
15:00+16юз1276100 0.0 1003385
18:00+17юз1375100 0.1 1003179
21:00+14юз2287100 0.1 100336
12 августа, пт
пт1200:00+12юз229337 0.0 100320
03:00+11юз229762 0.0 100228
06:00+12юз1294100 0.0 100288
09:00+15зюз1288100 0.5 1002253
12:00+15юз1394100 0.9 1002254
15:00+16зсз2393100 1.6 1002289
18:00+16з1289100 0.1 1002325
21:00+14зюз1198100 0.1 100212